Location: Bad Dürkheim
(49.4618°N, 8.1724°E)
Time: 04:59:22
(UTC+00:00)

NOSS 3-1 (C) - Pass Details

Date: 14 June 2025
Orbit: 625 x 1577 km, 63.4° (Epoch: 18 June)

Event Time Altitude Azimuth Distance (km) Brightness Sun altitude
Rises 22:27:36 0° 317° (NW) 3,737 7.7 -16.0°
Reaches altitude 10° 22:29:58 10° 316° (NW) 2,908 6.9 -16.1°
Maximum altitude 22:37:02 78° 231° (SW) 1,291 4.0 -16.4°
Enters shadow 22:43:28 20° 149° (SSE) 2,796 5.3 -16.6°
